Location: Asheville, NC
(35.6000°N, 82.5500°W)
Time: 13:08:14
(UTC-04:00)

CUTE-I - Pass Details

Date: 03 January 2018
Orbit: 811 x 825 km, 98.7° (Epoch: 18 June)

Event Time Altitude Azimuth Distance (km) Brightness Sun altitude
Rises 17:56:03 0° 161° (SSE) 3,337 ? -5.7°
Reaches altitude 10° 17:58:23 10° 160° (SSE) 2,407 ? -6.1°
Maximum altitude 18:03:42 76° 75° (ENE) 844 ? -7.1°
Drops below altitude 10° 18:09:02 10° 350° (N) 2,412 ? -8.1°
Sets 18:11:23 0° 349° (N) 3,345 ? -8.5°
